ITY6524 LGAV-LIME

Flight info

Callsign ITY6524
Flight time 2h 25m
Altitude 32000
Route KOR UL53 GARTA DCT OLGAT DCT INKIM DCT BIDMA DCT SORUG DCT ASDOR DCT LIKNO DCT BOA DCT OGPUD DCT BETMU DCT OSBUL
Aircraft A320/M-SDE3FGHIRWY/LB1

Departure

Time 2026-05-07 14:49
Airport Athens Eleftherios Venizelos International Airport (LGAV)

Arrival

Time 2026-05-07 17:15
Airport Il Caravaggio International Airport (LIME)
Time Latitude Longitude Altitude Speed Heading
2026-05-07 14:16 37.93793 23.95022 300 ft 0 kts 306°
2026-05-07 14:34 37.93792 23.95022 300 ft 0 kts 306°
2026-05-07 14:37 37.93759 23.95070 302 ft 4 kts 325°
2026-05-07 14:37 37.93736 23.95083 299 ft 4 kts
2026-05-07 14:38 37.93725 23.95080 299 ft 0 kts 37°
2026-05-07 14:38 37.93725 23.95079 299 ft 0 kts 37°
2026-05-07 14:42 37.93731 23.95085 302 ft 6 kts 37°
2026-05-07 14:42 37.93791 23.95142 301 ft 11 kts 37°
2026-05-07 14:42 37.93846 23.95202 301 ft 12 kts 53°
2026-05-07 14:43 37.93887 23.95324 299 ft 9 kts 79°
2026-05-07 14:43 37.93866 23.95393 302 ft 9 kts 127°
2026-05-07 14:43 37.93853 23.95465 296 ft 9 kts 69°
2026-05-07 14:43 37.93902 23.95520 298 ft 14 kts 37°
2026-05-07 14:44 37.94016 23.95627 299 ft 22 kts 37°
2026-05-07 14:44 37.94139 23.95745 299 ft 27 kts 37°
2026-05-07 14:44 37.94292 23.95891 299 ft 27 kts 37°
2026-05-07 14:44 37.94435 23.96027 300 ft 25 kts 37°
2026-05-07 14:45 37.94568 23.96152 301 ft 22 kts 36°
2026-05-07 14:45 37.94686 23.96263 299 ft 20 kts 37°
2026-05-07 14:45 37.94789 23.96363 301 ft 17 kts 37°
2026-05-07 14:45 37.94878 23.96447 302 ft 15 kts 36°
2026-05-07 14:46 37.94958 23.96522 303 ft 15 kts 37°
2026-05-07 14:46 37.95072 23.96631 303 ft 23 kts 37°
2026-05-07 14:46 37.95196 23.96748 303 ft 19 kts 37°
2026-05-07 14:46 37.95287 23.96834 304 ft 15 kts 37°
2026-05-07 14:47 37.95281 23.96930 306 ft 8 kts 127°
2026-05-07 14:47 37.95261 23.96963 307 ft 2 kts 128°
2026-05-07 14:47 37.95225 23.97017 312 ft 10 kts 139°
2026-05-07 14:47 37.95169 23.97001 310 ft 9 kts 216°
2026-05-07 14:48 37.95114 23.96949 311 ft 11 kts 217°
2026-05-07 14:48 37.95038 23.96878 310 ft 24 kts 217°
2026-05-07 14:48 37.94706 23.96561 299 ft 93 kts 217°
2026-05-07 14:48 37.94029 23.95918 287 ft 147 kts 217°
2026-05-07 14:49 37.93134 23.95066 633 ft 159 kts 217°
2026-05-07 14:49 37.92205 23.94331 1312 ft 157 kts 204°
2026-05-07 14:49 37.91203 23.93756 1838 ft 163 kts 203°
2026-05-07 14:49 37.90106 23.93098 2117 ft 186 kts 206°
2026-05-07 14:50 37.88895 23.92284 2375 ft 208 kts 208°
2026-05-07 14:50 37.87549 23.91353 2634 ft 231 kts 209°
2026-05-07 14:50 37.86110 23.90354 3319 ft 238 kts 208°
2026-05-07 14:50 37.84674 23.89356 4176 ft 240 kts 208°
2026-05-07 14:51 37.83189 23.88329 4928 ft 246 kts 209°
2026-05-07 14:51 37.81669 23.87284 5642 ft 252 kts 209°
2026-05-07 14:51 37.80114 23.86219 6417 ft 256 kts 209°
2026-05-07 14:51 37.78536 23.85138 7120 ft 260 kts 210°
2026-05-07 14:52 37.76935 23.84042 7847 ft 263 kts 210°
2026-05-07 14:52 37.75319 23.82938 8600 ft 266 kts 211°
2026-05-07 14:52 37.73676 23.81824 9322 ft 270 kts 210°
2026-05-07 14:52 37.72008 23.80710 10059 ft 273 kts 210°
2026-05-07 14:53 37.70342 23.79605 10727 ft 276 kts 210°
2026-05-07 14:53 37.68640 23.78475 11397 ft 278 kts 211°
2026-05-07 14:53 37.66919 23.77332 12075 ft 280 kts 211°
2026-05-07 14:53 37.65190 23.76182 12763 ft 282 kts 211°
2026-05-07 14:54 37.63447 23.75021 13449 ft 285 kts 212°
2026-05-07 14:54 37.61690 23.73853 14154 ft 284 kts 212°
2026-05-07 14:54 37.59958 23.72703 14762 ft 286 kts 212°
2026-05-07 14:54 37.58192 23.71532 15364 ft 288 kts 212°
2026-05-07 14:55 37.56527 23.70128 15715 ft 293 kts 231°
2026-05-07 14:55 37.55454 23.67916 15846 ft 304 kts 255°
2026-05-07 14:55 37.54992 23.65251 16001 ft 320 kts 260°
2026-05-07 14:55 37.54556 23.62428 16098 ft 335 kts 260°
2026-05-07 14:56 37.54094 23.59530 16115 ft 339 kts 259°
2026-05-07 14:56 37.53615 23.56625 16131 ft 340 kts 259°
2026-05-07 14:56 37.53131 23.53744 16171 ft 342 kts 259°
2026-05-07 14:56 37.52635 23.50798 16775 ft 344 kts 259°
2026-05-07 14:57 37.52138 23.47844 17408 ft 346 kts 259°
2026-05-07 14:57 37.51644 23.44874 18032 ft 347 kts 259°
2026-05-07 14:57 37.51149 23.41890 18598 ft 350 kts 259°
2026-05-07 14:57 37.50647 23.38881 19085 ft 353 kts 259°
2026-05-07 14:58 37.50137 23.35846 19564 ft 356 kts 259°
2026-05-07 14:58 37.49623 23.32786 20039 ft 359 kts 260°
2026-05-07 14:58 37.49124 23.29688 20516 ft 362 kts 263°
2026-05-07 14:58 37.49088 23.26570 20983 ft 363 kts 278°
2026-05-07 14:59 37.49753 23.23507 21446 ft 366 kts 293°
2026-05-07 14:59 37.51088 23.20761 21899 ft 371 kts 309°
2026-05-07 14:59 37.53017 23.18573 22375 ft 379 kts 324°
2026-05-07 14:59 37.55362 23.17001 22838 ft 384 kts 331°
2026-05-07 15:00 37.57771 23.15515 23316 ft 386 kts 331°
2026-05-07 15:00 37.60192 23.14023 23763 ft 389 kts 331°
2026-05-07 15:00 37.62599 23.12541 24141 ft 391 kts 330°
2026-05-07 15:00 37.65039 23.11033 24536 ft 392 kts 330°
2026-05-07 15:01 37.67491 23.09514 24921 ft 393 kts 330°
2026-05-07 15:01 37.69952 23.07984 25288 ft 395 kts 330°
2026-05-07 15:01 37.72417 23.06450 25646 ft 396 kts 330°
2026-05-07 15:01 37.74897 23.04907 25993 ft 398 kts 330°
2026-05-07 15:02 37.77384 23.03359 26341 ft 399 kts 329°
2026-05-07 15:02 37.79875 23.01808 26688 ft 400 kts 329°
2026-05-07 15:02 37.82384 23.00245 27038 ft 402 kts 329°
2026-05-07 15:02 37.84866 22.98696 27361 ft 404 kts 329°
2026-05-07 15:03 37.87390 22.97120 27676 ft 405 kts 329°
2026-05-07 15:03 37.89913 22.95523 27996 ft 405 kts 326°
2026-05-07 15:03 37.92246 22.93565 28318 ft 401 kts 317°
2026-05-07 15:03 37.94261 22.91145 28649 ft 398 kts 308°
2026-05-07 15:04 37.95926 22.88357 28979 ft 396 kts 302°
2026-05-07 15:04 37.97496 22.85487 29329 ft 396 kts 302°
2026-05-07 15:04 37.99075 22.82626 29643 ft 397 kts 302°
2026-05-07 15:04 38.00644 22.79793 29938 ft 398 kts 302°
2026-05-07 15:05 38.02234 22.76915 30184 ft 400 kts 302°
2026-05-07 15:05 38.03827 22.74021 30400 ft 401 kts 302°
2026-05-07 15:05 38.05417 22.71120 30662 ft 400 kts 302°
2026-05-07 15:05 38.07001 22.68223 31014 ft 397 kts 302°
2026-05-07 15:06 38.08563 22.65370 31461 ft 391 kts 302°
2026-05-07 15:06 38.10105 22.62554 31929 ft 385 kts 302°
2026-05-07 15:06 38.11625 22.59776 32078 ft 380 kts 302°
2026-05-07 15:06 38.13106 22.57071 32108 ft 367 kts 302°
2026-05-07 15:07 38.15958 22.51864 32110 ft 359 kts 302°
2026-05-07 15:07 38.18790 22.46660 32107 ft 358 kts 302°
2026-05-07 15:08 38.21616 22.41459 32114 ft 357 kts 302°
2026-05-07 15:08 38.24440 22.36268 32110 ft 357 kts 302°
2026-05-07 15:09 38.27237 22.31109 32109 ft 356 kts 302°
2026-05-07 15:09 38.30047 22.25915 32116 ft 356 kts 302°
2026-05-07 15:10 38.32856 22.20720 32110 ft 356 kts 302°
2026-05-07 15:10 38.35670 22.15518 32101 ft 356 kts 302°
2026-05-07 15:11 38.38457 22.10354 32102 ft 356 kts 301°
2026-05-07 15:11 38.41257 22.05141 32091 ft 356 kts 302°
2026-05-07 15:12 38.44055 21.99923 32090 ft 357 kts 302°
2026-05-07 15:12 38.46858 21.94701 32088 ft 356 kts 302°
2026-05-07 15:13 38.49637 21.89512 32080 ft 356 kts 301°
2026-05-07 15:13 38.52426 21.84295 32083 ft 355 kts 301°
2026-05-07 15:14 38.55209 21.79075 32087 ft 355 kts 301°
2026-05-07 15:14 38.57989 21.73844 32087 ft 356 kts 301°
2026-05-07 15:15 38.60745 21.68659 32082 ft 355 kts 301°
2026-05-07 15:15 38.63519 21.63442 32079 ft 354 kts 301°
2026-05-07 15:16 38.66288 21.58238 32078 ft 354 kts 301°
2026-05-07 15:16 38.69055 21.53009 32073 ft 356 kts 301°
2026-05-07 15:17 38.71804 21.47798 32078 ft 355 kts 301°
2026-05-07 15:17 38.74573 21.42551 32078 ft 355 kts 301°
2026-05-07 15:18 38.77331 21.37307 32077 ft 355 kts 301°
2026-05-07 15:18 38.80091 21.32063 32075 ft 354 kts 301°
2026-05-07 15:19 38.82832 21.26852 32078 ft 355 kts 301°
2026-05-07 15:19 38.85587 21.21595 32077 ft 355 kts 301°
2026-05-07 15:20 38.88334 21.16339 32078 ft 355 kts 301°
2026-05-07 15:20 38.91076 21.11088 32082 ft 354 kts 301°
2026-05-07 15:21 38.93818 21.05832 32088 ft 354 kts 301°
2026-05-07 15:21 38.96534 21.00616 32091 ft 353 kts 301°
2026-05-07 15:22 38.99397 20.95478 32112 ft 356 kts 306°
2026-05-07 15:22 39.02611 20.90623 32101 ft 357 kts 306°
2026-05-07 15:23 39.05817 20.85746 32097 ft 357 kts 306°
2026-05-07 15:23 39.09005 20.80895 32095 ft 357 kts 306°
2026-05-07 15:24 39.12218 20.76012 32097 ft 357 kts 306°
2026-05-07 15:24 39.15420 20.71117 32094 ft 358 kts 306°
2026-05-07 15:25 39.18623 20.66221 32088 ft 357 kts 306°
2026-05-07 15:25 39.21798 20.61362 32082 ft 357 kts 306°
2026-05-07 15:26 39.24987 20.56470 32076 ft 356 kts 306°
2026-05-07 15:26 39.28169 20.51586 32097 ft 355 kts 306°
2026-05-07 15:27 39.31348 20.46698 32085 ft 356 kts 305°
2026-05-07 15:27 39.34506 20.41835 32070 ft 356 kts 305°
2026-05-07 15:28 39.37692 20.36922 32065 ft 357 kts 306°
2026-05-07 15:28 39.40875 20.32007 32060 ft 357 kts 305°
2026-05-07 15:29 39.44057 20.27076 32059 ft 357 kts 305°
2026-05-07 15:29 39.47213 20.22178 32061 ft 357 kts 305°
2026-05-07 15:30 39.50394 20.17243 32058 ft 357 kts 305°
2026-05-07 15:30 39.53574 20.12304 32060 ft 357 kts 305°
2026-05-07 15:31 39.56755 20.07358 32062 ft 357 kts 305°
2026-05-07 15:31 39.59919 20.02427 32076 ft 358 kts 305°
2026-05-07 15:32 39.63104 19.97450 32070 ft 359 kts 304°
2026-05-07 15:32 39.66295 19.92459 32067 ft 360 kts 305°
2026-05-07 15:33 39.69493 19.87459 32067 ft 360 kts 304°
2026-05-07 15:33 39.72666 19.82476 32066 ft 360 kts 304°
2026-05-07 15:34 39.75855 19.77453 32064 ft 360 kts 304°
2026-05-07 15:34 39.79041 19.72425 32062 ft 360 kts 304°
2026-05-07 15:35 39.82221 19.67401 32055 ft 360 kts 304°
2026-05-07 15:35 39.85401 19.62375 32052 ft 360 kts 304°
2026-05-07 15:36 39.88564 19.57393 32069 ft 360 kts 304°
2026-05-07 15:36 39.91751 19.52352 32058 ft 360 kts 304°
2026-05-07 15:37 39.94929 19.47306 32052 ft 361 kts 304°
2026-05-07 15:37 39.98107 19.42241 32050 ft 361 kts 304°
2026-05-07 15:38 40.01268 19.37199 32048 ft 361 kts 304°
2026-05-07 15:38 40.04450 19.32126 32049 ft 361 kts 304°
2026-05-07 15:39 40.07628 19.27048 32046 ft 361 kts 304°
2026-05-07 15:39 40.10812 19.21966 32045 ft 361 kts 304°
2026-05-07 15:40 40.13966 19.16917 32049 ft 361 kts 304°
2026-05-07 15:40 40.17137 19.11826 32064 ft 361 kts 303°
2026-05-07 15:41 40.20308 19.06720 32049 ft 362 kts 303°
2026-05-07 15:41 40.23480 19.01614 32045 ft 362 kts 303°
2026-05-07 15:42 40.26581 18.96480 32039 ft 361 kts 302°
2026-05-07 15:42 40.29598 18.91220 32042 ft 361 kts 301°
2026-05-07 15:43 40.32606 18.85939 32038 ft 362 kts 301°
2026-05-07 15:43 40.35634 18.80666 32041 ft 362 kts 302°
2026-05-07 15:44 40.38668 18.75407 32044 ft 362 kts 301°
2026-05-07 15:44 40.41686 18.70162 32038 ft 362 kts 301°
2026-05-07 15:45 40.44714 18.64873 32041 ft 363 kts 301°
2026-05-07 15:45 40.47742 18.59563 32056 ft 363 kts 301°
2026-05-07 15:46 40.52266 18.51636 32042 ft 363 kts 301°
2026-05-07 15:47 40.55298 18.46333 32035 ft 363 kts 301°
2026-05-07 15:47 40.58325 18.41014 32041 ft 363 kts 301°
2026-05-07 15:48 40.61331 18.35717 32034 ft 364 kts 301°
2026-05-07 15:48 40.64357 18.30383 32029 ft 364 kts 301°
2026-05-07 15:49 40.67380 18.25032 32026 ft 364 kts 301°
2026-05-07 15:49 40.70406 18.19673 32026 ft 364 kts 301°
2026-05-07 15:50 40.73408 18.14345 32021 ft 365 kts 301°
2026-05-07 15:50 40.76434 18.08979 32038 ft 365 kts 301°
2026-05-07 15:51 40.79467 18.03591 32025 ft 366 kts 301°
2026-05-07 15:51 40.82492 17.98187 32025 ft 367 kts 301°
2026-05-07 15:52 40.85507 17.92800 32023 ft 367 kts 301°
2026-05-07 15:52 40.88546 17.87373 32021 ft 368 kts 301°
2026-05-07 15:53 40.91579 17.81935 32016 ft 368 kts 300°
2026-05-07 15:53 40.94612 17.76482 32024 ft 368 kts 300°
2026-05-07 15:54 40.97640 17.71031 32024 ft 367 kts 300°
2026-05-07 15:54 41.00650 17.65623 32030 ft 367 kts 300°
2026-05-07 15:55 41.03666 17.60185 32029 ft 366 kts 300°
2026-05-07 15:55 41.06675 17.54744 32041 ft 366 kts 300°
2026-05-07 15:56 41.09686 17.49287 32030 ft 367 kts 300°
2026-05-07 15:56 41.12675 17.43853 32013 ft 367 kts 300°
2026-05-07 15:57 41.15684 17.38382 32031 ft 367 kts 300°
2026-05-07 15:57 41.18697 17.32915 32037 ft 366 kts 300°
2026-05-07 15:58 41.21699 17.27455 32039 ft 365 kts 300°
2026-05-07 15:58 41.24656 17.22037 32028 ft 365 kts 300°
2026-05-07 15:59 41.27632 17.16581 32013 ft 364 kts 300°
2026-05-07 15:59 41.30607 17.11127 32013 ft 364 kts 299°
2026-05-07 16:00 41.33579 17.05672 32042 ft 364 kts 300°
2026-05-07 16:00 41.36559 17.00188 31994 ft 367 kts 300°
2026-05-07 16:01 41.39536 16.94702 31985 ft 369 kts 300°
2026-05-07 16:01 41.42544 16.89151 31978 ft 370 kts 300°
2026-05-07 16:02 41.45559 16.83577 31979 ft 371 kts 300°
2026-05-07 16:02 41.48573 16.77986 31981 ft 371 kts 300°
2026-05-07 16:03 41.51564 16.72434 31980 ft 372 kts 300°
2026-05-07 16:03 41.54579 16.66827 31995 ft 372 kts 300°
2026-05-07 16:04 41.57586 16.61210 31989 ft 372 kts 300°
2026-05-07 16:04 41.60590 16.55591 31987 ft 372 kts 300°
2026-05-07 16:05 41.63580 16.50007 31986 ft 372 kts 300°
2026-05-07 16:05 41.66586 16.44383 31983 ft 372 kts 300°
2026-05-07 16:06 41.69582 16.38756 31985 ft 371 kts 299°
2026-05-07 16:06 41.72577 16.33121 31986 ft 371 kts 299°
2026-05-07 16:07 41.75570 16.27486 31983 ft 371 kts 299°
2026-05-07 16:07 41.78542 16.21879 31981 ft 371 kts 299°
2026-05-07 16:08 41.81526 16.16226 31975 ft 372 kts 298°
2026-05-07 16:08 41.84506 16.10571 31974 ft 372 kts 299°
2026-05-07 16:09 41.87492 16.04907 31974 ft 372 kts 299°
2026-05-07 16:09 41.90470 15.99242 32019 ft 372 kts 298°
2026-05-07 16:10 41.93426 15.93607 31989 ft 371 kts 298°
2026-05-07 16:10 41.96395 15.87937 31979 ft 371 kts 298°
2026-05-07 16:11 41.99367 15.82266 31973 ft 371 kts 298°
2026-05-07 16:11 42.02322 15.76594 31966 ft 371 kts 298°
2026-05-07 16:12 42.05258 15.70946 31968 ft 371 kts 298°
2026-05-07 16:12 42.08217 15.65271 31968 ft 371 kts 298°
2026-05-07 16:13 42.11169 15.59584 31981 ft 370 kts 298°
2026-05-07 16:13 42.13614 15.54867 31986 ft 370 kts 298°
2026-05-07 16:14 42.17026 15.48260 31991 ft 369 kts 298°
2026-05-07 16:14 42.19955 15.42574 32010 ft 369 kts 297°
2026-05-07 16:15 42.22893 15.36875 31995 ft 370 kts 298°
2026-05-07 16:15 42.25332 15.32146 31991 ft 370 kts 297°
2026-05-07 16:16 42.28738 15.25517 32008 ft 369 kts 297°
2026-05-07 16:16 42.31650 15.19829 32012 ft 367 kts 297°
2026-05-07 16:17 42.34060 15.15114 32013 ft 366 kts 297°
2026-05-07 16:17 42.36950 15.09449 32008 ft 366 kts 297°
2026-05-07 16:18 42.40292 15.02871 32003 ft 365 kts 297°
2026-05-07 16:18 42.42701 14.98127 31999 ft 365 kts 297°
2026-05-07 16:19 42.45559 14.92503 32022 ft 365 kts 297°
2026-05-07 16:19 42.48441 14.86812 31989 ft 367 kts 297°
2026-05-07 16:20 42.51337 14.81085 31976 ft 369 kts 297°
2026-05-07 16:20 42.54242 14.75333 31975 ft 370 kts 297°
2026-05-07 16:21 42.57125 14.69604 31974 ft 371 kts 297°
2026-05-07 16:21 42.60025 14.63820 31979 ft 371 kts 297°
2026-05-07 16:22 42.62932 14.58026 31980 ft 371 kts 297°
2026-05-07 16:22 42.65823 14.52266 31983 ft 371 kts 297°
2026-05-07 16:23 42.68724 14.46469 31987 ft 371 kts 297°
2026-05-07 16:23 42.71624 14.40654 31987 ft 371 kts 297°
2026-05-07 16:24 42.74516 14.34830 31991 ft 373 kts 297°
2026-05-07 16:24 42.77430 14.28968 31974 ft 374 kts 297°
2026-05-07 16:25 42.80323 14.23126 31978 ft 375 kts 297°
2026-05-07 16:25 42.83271 14.17239 31990 ft 379 kts 301°
2026-05-07 16:26 42.87028 14.12059 31981 ft 387 kts 309°
2026-05-07 16:26 42.90930 14.06999 31981 ft 387 kts 309°
2026-05-07 16:27 42.94799 14.01961 31983 ft 387 kts 308°
2026-05-07 16:27 42.98683 13.96882 31997 ft 387 kts 308°
2026-05-07 16:28 43.02570 13.91782 31991 ft 387 kts 308°
2026-05-07 16:28 43.06456 13.86678 31988 ft 388 kts 308°
2026-05-07 16:29 43.10321 13.81598 32004 ft 388 kts 308°
2026-05-07 16:29 43.14211 13.76489 31995 ft 388 kts 308°
2026-05-07 16:30 43.18093 13.71375 31989 ft 387 kts 308°
2026-05-07 16:30 43.21970 13.66245 32003 ft 387 kts 308°
2026-05-07 16:31 43.25823 13.61147 31993 ft 388 kts 308°
2026-05-07 16:31 43.29708 13.56006 31985 ft 388 kts 308°
2026-05-07 16:32 43.33581 13.50855 31982 ft 388 kts 308°
2026-05-07 16:32 43.37448 13.45701 31982 ft 387 kts 308°
2026-05-07 16:33 43.41293 13.40575 31979 ft 387 kts 308°
2026-05-07 16:33 43.45164 13.35414 32012 ft 388 kts 308°
2026-05-07 16:34 43.49035 13.30236 31990 ft 388 kts 308°
2026-05-07 16:34 43.52890 13.25061 31981 ft 388 kts 308°
2026-05-07 16:35 43.56769 13.19852 31972 ft 389 kts 308°
2026-05-07 16:35 43.60626 13.14664 31981 ft 389 kts 308°
2026-05-07 16:36 43.64404 13.09356 31977 ft 382 kts 301°
2026-05-07 16:36 43.66898 13.03128 31970 ft 368 kts 283°
2026-05-07 16:37 43.68214 12.96345 31978 ft 366 kts 279°
2026-05-07 16:37 43.69477 12.89524 31972 ft 367 kts 279°
2026-05-07 16:38 43.70725 12.82737 31968 ft 367 kts 279°
2026-05-07 16:38 43.71976 12.75906 31987 ft 367 kts 279°
2026-05-07 16:39 43.73224 12.69061 31979 ft 367 kts 279°
2026-05-07 16:39 43.74469 12.62212 31962 ft 368 kts 279°
2026-05-07 16:40 43.75710 12.55349 31973 ft 368 kts 279°
2026-05-07 16:40 43.76945 12.48532 31965 ft 368 kts 279°
2026-05-07 16:41 43.78181 12.41665 31967 ft 367 kts 279°
2026-05-07 16:41 43.79860 12.34958 31971 ft 377 kts 295°
2026-05-07 16:42 43.83296 12.29366 31981 ft 390 kts 308°
2026-05-07 16:42 43.87129 12.24062 31981 ft 389 kts 307°
2026-05-07 16:43 43.90927 12.18709 31969 ft 389 kts 307°
2026-05-07 16:43 43.94722 12.13343 31971 ft 390 kts 307°
2026-05-07 16:44 43.98387 12.08182 31988 ft 390 kts 307°
2026-05-07 16:44 44.01707 12.03501 32000 ft 390 kts 308°
2026-05-07 16:45 44.05266 11.98485 31985 ft 390 kts 307°
2026-05-07 16:45 44.09056 11.93115 31976 ft 390 kts 307°
2026-05-07 16:46 44.12850 11.87723 31973 ft 390 kts 307°
2026-05-07 16:46 44.16643 11.82336 31976 ft 390 kts 307°
2026-05-07 16:47 44.20407 11.76972 31981 ft 390 kts 307°
2026-05-07 16:47 44.24196 11.71569 31997 ft 390 kts 307°
2026-05-07 16:48 44.27984 11.66155 32010 ft 389 kts 307°
2026-05-07 16:48 44.31764 11.60727 32003 ft 389 kts 307°
2026-05-07 16:49 44.35515 11.55335 31989 ft 390 kts 307°
2026-05-07 16:49 44.39293 11.49907 31967 ft 390 kts 307°
2026-05-07 16:50 44.43065 11.44466 31958 ft 389 kts 307°
2026-05-07 16:50 44.46805 11.39064 31951 ft 388 kts 307°
2026-05-07 16:51 44.50288 11.34036 31731 ft 381 kts 307°
2026-05-07 16:51 44.52086 11.31374 31489 ft 370 kts 303°
2026-05-07 16:51 44.53585 11.28508 31236 ft 360 kts 296°
2026-05-07 16:51 44.54760 11.25446 30987 ft 354 kts 289°
2026-05-07 16:52 44.55683 11.22322 30846 ft 351 kts 287°
2026-05-07 16:52 44.56606 11.19157 30599 ft 350 kts 287°
2026-05-07 16:52 44.57527 11.16010 30355 ft 348 kts 287°
2026-05-07 16:52 44.58446 11.12874 30110 ft 347 kts 287°
2026-05-07 16:53 44.59358 11.09749 29831 ft 345 kts 287°
2026-05-07 16:53 44.60263 11.06631 29555 ft 344 kts 287°
2026-05-07 16:53 44.61161 11.03528 29275 ft 343 kts 287°
2026-05-07 16:53 44.62057 11.00425 28997 ft 342 kts 288°
2026-05-07 16:54 44.62946 10.97336 28713 ft 341 kts 288°
2026-05-07 16:54 44.63821 10.94295 28447 ft 340 kts 288°
2026-05-07 16:54 44.64705 10.91225 28178 ft 339 kts 288°
2026-05-07 16:54 44.65587 10.88153 27906 ft 338 kts 288°
2026-05-07 16:55 44.66465 10.85087 27637 ft 337 kts 288°
2026-05-07 16:55 44.67340 10.82035 27378 ft 336 kts 288°
2026-05-07 16:55 44.68210 10.78992 27127 ft 335 kts 288°
2026-05-07 16:55 44.69076 10.75954 26862 ft 334 kts 288°
2026-05-07 16:56 44.69940 10.72927 26604 ft 334 kts 288°
2026-05-07 16:56 44.70792 10.69940 26364 ft 333 kts 288°
2026-05-07 16:56 44.72501 10.63905 25868 ft 331 kts 288°
2026-05-07 16:57 44.73344 10.60923 25528 ft 326 kts 288°
2026-05-07 16:57 44.74146 10.58083 25098 ft 324 kts 289°
2026-05-07 16:57 44.74975 10.55144 24659 ft 323 kts 289°
2026-05-07 16:57 44.75804 10.52207 24200 ft 322 kts 289°
2026-05-07 16:58 44.76628 10.49287 23752 ft 321 kts 289°
2026-05-07 16:58 44.77436 10.46411 23261 ft 320 kts 289°
2026-05-07 16:58 44.78252 10.43499 22806 ft 318 kts 289°
2026-05-07 16:58 44.79061 10.40618 22362 ft 316 kts 289°
2026-05-07 16:59 44.79869 10.37750 21928 ft 314 kts 289°
2026-05-07 16:59 44.80671 10.34905 21494 ft 312 kts 291°
2026-05-07 16:59 44.81775 10.32272 21069 ft 314 kts 307°
2026-05-07 16:59 44.83387 10.30184 20606 ft 318 kts 323°
2026-05-07 17:00 44.85365 10.28851 20168 ft 324 kts 340°
2026-05-07 17:00 44.87595 10.28287 19736 ft 327 kts 348°
2026-05-07 17:00 44.89851 10.27861 19297 ft 327 kts 348°
2026-05-07 17:00 44.92112 10.27421 18861 ft 328 kts 348°
2026-05-07 17:01 44.94369 10.26979 18425 ft 329 kts 348°
2026-05-07 17:01 44.96637 10.26537 17970 ft 329 kts 349°
2026-05-07 17:01 44.98892 10.26094 17551 ft 327 kts 349°
2026-05-07 17:01 45.01104 10.25660 17199 ft 324 kts 349°
2026-05-07 17:02 45.03338 10.25220 16826 ft 322 kts 349°
2026-05-07 17:02 45.05557 10.24781 16361 ft 322 kts 349°
2026-05-07 17:02 45.07756 10.24349 16104 ft 317 kts 349°
2026-05-07 17:02 45.09941 10.23920 15691 ft 317 kts 349°
2026-05-07 17:03 45.12120 10.23490 15335 ft 315 kts 349°
2026-05-07 17:03 45.14285 10.23061 14984 ft 313 kts 349°
2026-05-07 17:03 45.16437 10.22635 14639 ft 312 kts 349°
2026-05-07 17:03 45.18583 10.22229 14297 ft 310 kts 349°
2026-05-07 17:04 45.20715 10.21841 13901 ft 307 kts 350°
2026-05-07 17:04 45.22795 10.21468 13294 ft 303 kts 350°
2026-05-07 17:04 45.24861 10.21100 12910 ft 292 kts 350°
2026-05-07 17:04 45.26874 10.20739 12571 ft 290 kts 350°
2026-05-07 17:05 45.28850 10.20381 12231 ft 289 kts 350°
2026-05-07 17:05 45.30841 10.20016 11887 ft 288 kts 350°
2026-05-07 17:05 45.32824 10.19653 11551 ft 287 kts 350°
2026-05-07 17:05 45.34802 10.19295 11196 ft 286 kts 350°
2026-05-07 17:06 45.36783 10.18936 10842 ft 285 kts 350°
2026-05-07 17:06 45.38721 10.18580 10501 ft 284 kts 350°
2026-05-07 17:06 45.40679 10.18216 10141 ft 284 kts 350°
2026-05-07 17:06 45.42632 10.17855 9774 ft 283 kts 350°
2026-05-07 17:07 45.44583 10.17496 9390 ft 282 kts 351°
2026-05-07 17:07 45.46523 10.17142 9023 ft 280 kts 351°
2026-05-07 17:07 45.48450 10.16790 8640 ft 278 kts 351°
2026-05-07 17:07 45.50365 10.16434 8269 ft 276 kts 349°
2026-05-07 17:08 45.52176 10.15628 7887 ft 272 kts 329°
2026-05-07 17:08 45.53622 10.13954 7507 ft 267 kts 309°
2026-05-07 17:08 45.54778 10.11926 7131 ft 266 kts 308°
2026-05-07 17:08 45.55925 10.09906 6756 ft 256 kts 308°
2026-05-07 17:09 45.57024 10.07972 6383 ft 246 kts 308°
2026-05-07 17:09 45.58073 10.06126 6049 ft 233 kts 308°
2026-05-07 17:09 45.59076 10.04364 5713 ft 225 kts 308°
2026-05-07 17:09 45.60045 10.02663 5389 ft 217 kts 308°
2026-05-07 17:10 45.60959 10.00980 5050 ft 212 kts 299°
2026-05-07 17:10 45.61488 9.99031 4591 ft 211 kts 285°
2026-05-07 17:10 45.61856 9.97049 4257 ft 206 kts 284°
2026-05-07 17:10 45.62214 9.95110 3969 ft 198 kts 284°
2026-05-07 17:11 45.62561 9.93264 3742 ft 189 kts 284°
2026-05-07 17:11 45.62897 9.91478 3471 ft 184 kts 284°
2026-05-07 17:11 45.63224 9.89736 3224 ft 182 kts 284°
2026-05-07 17:11 45.63551 9.87995 2988 ft 180 kts 284°
2026-05-07 17:12 45.63869 9.86306 2752 ft 171 kts 283°
2026-05-07 17:12 45.64168 9.84710 2528 ft 167 kts 283°
2026-05-07 17:12 45.64466 9.83119 2317 ft 165 kts 283°
2026-05-07 17:12 45.64759 9.81554 2098 ft 160 kts 284°
2026-05-07 17:13 45.65039 9.80059 1899 ft 150 kts 283°
2026-05-07 17:13 45.65303 9.78644 1697 ft 145 kts 283°
2026-05-07 17:13 45.65551 9.77255 1486 ft 143 kts 282°
2026-05-07 17:13 45.65790 9.75884 1292 ft 142 kts 284°
2026-05-07 17:14 45.66066 9.74534 1149 ft 143 kts 285°
2026-05-07 17:14 45.66320 9.73181 908 ft 141 kts 283°
2026-05-07 17:14 45.66572 9.71825 767 ft 138 kts 283°
2026-05-07 17:14 45.66778 9.70707 768 ft 91 kts 284°
2026-05-07 17:15 45.66897 9.70088 774 ft 22 kts 284°
2026-05-07 17:15 45.66868 9.69946 770 ft 9 kts 240°
2026-05-07 17:15 45.66854 9.69915 767 ft 4 kts 238°
2026-05-07 17:15 45.66844 9.69892 766 ft 0 kts 238°
2026-05-07 17:16 45.66839 9.69879 765 ft 0 kts 238°
2026-05-07 17:16 45.66814 9.69850 763 ft 9 kts 201°
2026-05-07 17:17 45.66760 9.69912 762 ft 11 kts 108°
2026-05-07 17:17 45.66741 9.70013 762 ft 10 kts 104°
2026-05-07 17:17 45.66725 9.70102 762 ft 9 kts 105°
2026-05-07 17:17 45.66700 9.70238 762 ft 18 kts 105°
2026-05-07 17:18 45.66666 9.70418 762 ft 20 kts 105°
2026-05-07 17:18 45.66630 9.70615 762 ft 21 kts 105°
2026-05-07 17:18 45.66592 9.70819 761 ft 19 kts 104°
2026-05-07 17:18 45.66562 9.70978 761 ft 7 kts 112°
2026-05-07 17:19 45.66538 9.70970 761 ft 3 kts 203°
2026-05-07 17:19 45.66519 9.70962 759 ft 2 kts 195°
2026-05-07 17:19 45.66507 9.70957 759 ft 2 kts 196°
2026-05-07 17:19 45.66487 9.70949 761 ft 3 kts 196°
2026-05-07 17:20 45.66484 9.70948 761 ft 0 kts 195°